sat.trackr.live / text

‹ back to catalog

SHIYAN-32 03

NORAD 66379 · 2025-255D

PAYLOAD ACTIVE UNKNOWN

§ Identity

Operator
Country
PRC
Launch date
2025-11-08
Launch site
YSLA
Launch vehicle
Mass (kg)
RCS (m²)

External: N2YO · Heavens-Above · Gunter

§ Orbital elements

Epoch: 2026-05-24T22:31:31.380960Z

Period
93.43 min
Inclination
52.9937°
Eccentricity
0.0010815
Mean motion
15.41204168 rev/d
Perigee alt
435.2 km
Apogee alt
449.9 km
Semi-major
6,820.7 km
B*
2.3067e-4
RAAN
124.6651°
Arg perigee
74.1516°
Mean anomaly
286.0678°
Rev number
3,039

§ Raw data

SHIYAN-32 031 66379U 25255D   26144.93855765  .00009341  00000+0  23067-3 0  99922 66379  52.9937 124.6651 0010815  74.1516 286.0678 15.41204168 30396

JSON: /api/v1/satellites/66379 · /tle

For live sub-satellite position, see the globe view (requires WebGL).

§ Visibility from observer

Set your observer location to see the next 7 days of passes ≥ 10°. The values pass through the URL so the page stays shareable.

No JS? Fill the form by hand. The geolocation button needs JavaScript.